Flag for U.S.A. Weather past 2 weeks in Pittsburgh, Pennsylvania, U.S.A.

Now
47 °F

Clear.


Feels Like: 43 °F
Forecast: 45 / 64 °F
Wind: 7 mph from North

Location: Allegheny County Airport


UV Index: 5 (Moderate)

Visibility: 10 mi


Pressure: 30.27 "Hg

Humidity: 71%

Dew point: 38 °F

Location of PittsburghLocation

Historic Weather in Pittsburgh

°F

Pittsburgh temperature yesterday

Maximum temperature yesterday: 69 °F (at 4:53 PM)
Minimum temperature yesterday: 43 °F (at 4:53 AM)
Average temperature yesterday: 55 °F

Past Weeks' High & Low Weather Summary

 TemperatureHumidityPressure
High83 °F (Apr 13, 3:53 PM)97% (Apr 12, 4:53 AM)30.50 "Hg (Apr 12, 4:53 AM)
Low26 °F (Apr 16, 5:53 AM)17% (Apr 12, 6:53 PM)29.39 "Hg (Apr 8, 2:53 AM)
Average53 °F52%30.00 "Hg
* Reported Apr 4 4:53 AM — Apr 19 4:53 AM, Pittsburgh, Weather by CustomWeather, © 2014

Note: Actual official high and low records may vary slightly from our data, if they occured in-between our weather recording intervals... More about our weather records

Advertising

Historic Weather Conditions — Data for Previous 24 hours

 ConditionsComfort  
Time TempWeatherWind HumidityBarometerVisibility
4:53 AM
Apr 19
48 °FClear.6 mph68%30.27 "Hg10 mi
3:53 AM50 °FClear.6 mph63%30.25 "Hg10 mi
2:53 AM51 °FClear.7 mph61%30.24 "Hg10 mi
1:53 AM53 °FClear.9 mph56%30.24 "Hg10 mi
12:53 AM55 °FClear.8 mph51%30.23 "Hg10 mi
11:53 PM
Apr 18
56 °FClear.6 mph49%30.23 "Hg10 mi
10:53 PM58 °FClear.5 mph44%30.23 "Hg10 mi
9:53 PM59 °FClear.9 mph41%30.22 "Hg10 mi
8:53 PM62 °FSunny.5 mph32%30.21 "Hg10 mi
7:53 PM66 °FOvercast.No wind26%30.21 "Hg10 mi
6:53 PM66 °FSunny.5 mph26%30.20 "Hg10 mi
5:53 PM68 °FSunny.12 mph22%30.21 "Hg10 mi
4:53 PM69 °FSunny.9 mph22%30.21 "Hg10 mi
3:53 PM68 °FSunny.6 mph21%30.23 "Hg10 mi
2:53 PM67 °FSunny.No wind22%30.25 "Hg10 mi
1:53 PM64 °FSunny.No wind27%30.27 "Hg10 mi
12:53 PM61 °FSunny.5 mph29%30.29 "Hg10 mi
11:53 AM58 °FSunny.8 mph32%30.32 "Hg10 mi
10:53 AM54 °FSunny.7 mph38%30.33 "Hg10 mi
9:53 AM50 °FSunny.3 mph48%30.35 "Hg10 mi
8:53 AM46 °FSunny.5 mph51%30.35 "Hg10 mi
7:53 AM44 °FSunny.5 mph55%30.35 "Hg10 mi
6:53 AM43 °FClear.3 mph53%30.34 "Hg10 mi
Weather by CustomWeather, © 2014

See weather overview